Location: Coupvray
(48.8929°N, 2.7967°E)
Time: 08:29:37
(UTC+00:00)

Cosmos 2233 Rocket - Pass Details

Date: 14 July 2020
Orbit: 954 x 990 km, 82.9° (Epoch: 14 August)

Event Time Altitude Azimuth Distance (km) Brightness Sun altitude
Exits shadow 02:39:39 12° 202° (SSW) 2,573 5.6 -10.5°
Maximum altitude 02:45:26 64° 282° (WNW) 1,075 4.1 -9.9°
Drops below altitude 10° 02:51:41 10° 4° (N) 2,744 7.2 -9.2°
Sets 02:54:16 0° 8° (N) 3,701 8.1 -8.9°
